JS1SZZ-13 Weather Reports


time (UTC)temp
C
wind
direction
speed
KPH
gust
KPH
rain 1hr
cm
rain 24hr
cm
rain mn
cm
humidity
%
barometer
mb
20260504185000 3 0 0.0 0.0 0.00 0.36 0.00 83 1014.1
20260504183500 3 0 0.0 0.0 0.00 0.36 0.00 82 1013.8
20260504181959 4 0 0.0 0.0 0.00 0.38 0.00 80 1013.4
20260504180500 4 0 0.0 0.0 0.00 0.38 0.00 80 1013.2
20260504174959 5 0 0.0 0.0 0.00 0.41 0.00 78 1012.9
20260504173501 5 0 0.0 0.0 0.00 0.43 0.00 77 1012.7
20260504172000 5 0 0.0 0.0 0.00 0.46 0.00 74 1012.6
20260504170500 6 0 0.0 0.0 0.00 0.51 0.00 71 1012.6
20260504150500 8 0 0.0 0.0 0.00 0.56 0.00 60 1010.6
20260504140459 10 0 0.0 0.0 0.00 0.56 0.56 48 1009.4
20260504130500 11 0 0.0 0.0 0.00 0.58 0.56 45 1007.9
20260504110500 13 0 0.0 0.0 0.00 0.61 0.56 50 1004.5
20260504100500 15 0 0.0 0.0 0.00 0.69 0.56 41 1003.0
20260504081959 18 0 0.0 0.0 0.00 0.69 0.56 33 1000.3
20260504080500 19 0 0.0 0.0 0.00 0.69 0.56 36 999.9
20260504050500 24 0 0.0 0.0 0.00 0.69 0.56 25 995.6
20260504044959 25 0 0.0 0.0 0.00 0.69 0.56 25 996.1
20260504043500 25 0 0.0 0.0 0.00 0.69 0.56 27 995.9
20260504042000 25 0 0.0 0.0 0.00 0.69 0.56 22 995.9
20260504040459 25 0 0.0 0.0 0.00 0.69 0.56 23 995.8
20260504035000 25 0 0.0 0.0 0.00 0.69 0.56 27 995.9
20260504033500 26 0 0.0 0.0 0.00 0.69 0.56 27 996.0
20260504031959 25 0 0.0 0.0 0.00 0.69 0.56 29 995.9
20260504030459 26 0 0.0 0.0 0.00 0.69 0.56 36 995.9
20260504025001 26 0 0.0 0.0 0.00 0.69 0.56 28 996.2
20260504023500 25 0 0.0 0.0 0.00 0.69 0.56 32 996.2
20260504022000 25 0 0.0 0.0 0.00 0.69 0.56 34 996.5
20260504020459 25 0 0.0 0.0 0.00 0.69 0.56 33 996.4
20260504015000 25 0 0.0 0.0 0.00 0.69 0.56 34 996.6
20260504013500 25 0 0.0 0.0 0.00 0.69 0.56 38 996.7
20260504011959 25 0 0.0 0.0 0.00 0.69 0.56 54 996.6
20260504010500 24 0 0.0 0.0 0.00 0.69 0.56 54 996.9
20260504005000 23 0 0.0 0.0 0.00 0.69 0.56 62 996.7
20260504003459 22 0 0.0 0.0 0.00 0.69 0.56 67 996.9
20260504002000 22 0 0.0 0.0 0.00 0.69 0.56 72 997.1
20260504000500 21 0 0.0 0.0 0.00 0.69 0.56 73 997.4
20260503235000 20 0 0.0 0.0 0.00 0.69 0.56 75 997.7
20260503233459 18 0 0.0 0.0 0.00 0.69 0.56 81 997.8
20260503231959 17 0 0.0 0.0 0.00 0.69 0.56 85 997.7
20260503230500 17 0 0.0 0.0 0.00 0.69 0.56 87 997.5
20260503225000 15 0 0.0 0.0 0.00 0.69 0.56 88 997.7
20260503223459 16 0 0.0 0.0 0.00 0.69 0.56 89 998.2
20260503221959 15 0 0.0 0.0 0.00 0.69 0.56 90 998.1
20260503220501 15 0 0.0 0.0 0.00 0.69 0.56 92 998.4
20260503215000 14 0 0.0 0.0 0.00 0.69 0.56 93 998.0
20260503213459 14 0 0.0 0.0 0.00 0.69 0.56 95 998.1
20260503212000 13 0 0.0 0.0 0.03 0.69 0.56 95 998.4
20260503210500 13 0 0.0 0.0 0.08 0.69 0.56 94 998.3
20260503204959 12 0 0.0 0.0 0.25 0.69 0.56 95 998.7
20260503203501 12 0 0.0 0.0 0.28 0.64 0.53 95 998.6
20260503202000 12 0 0.0 0.0 0.25 0.61 0.51 95 998.6
20260503200459 12 0 0.0 0.0 0.23 0.56 0.43 95 998.4
20260503195001 12 0 0.0 0.0 0.05 0.38 0.25 95 998.4
20260503193500 12 0 0.0 0.0 0.03 0.36 0.23 95 998.5
20260503191959 12 0 0.0 0.0 0.05 0.36 0.23 95 998.6
20260503190500 12 0 0.0 0.0 0.03 0.30 0.20 95 998.8